When you browse on this site, cookies collect data to enhance your experience and personalize the content and advertising you see.
Visit our Privacy Policy to learn more. By continuing to use the site, you agree to this use of cookies and data.
  • In Czech Republic
  • List of Countries
  • For 7 days
  • Water Temperature
  • Weather Map
  • Weather Widgets
  • user-avatar
    Login

    Hourly Weather Kalgoorlie

    Today, 9 April, Thursday

    Time Temperature Precipitation Wind Pressure Humidity
    00:00 +22°C° 0 mm 5 mps 731 mmHg 39%
    01:00 +22°C° 0 mm 5 mps 731 mmHg 40%
    02:00 +21°C° 0 mm 5 mps 731 mmHg 43%
    03:00 +21°C° 0 mm 5 mps 731 mmHg 44%
    04:00 +20°C° 0 mm 4 mps 731 mmHg 45%
    05:00 +20°C° 0 mm 4 mps 731 mmHg 46%
    06:00 +21°C° 0 mm 5 mps 732 mmHg 43%
    07:00 +22°C° 0 mm 5 mps 732 mmHg 40%
    08:00 +23°C° 0 mm 6 mps 733 mmHg 36%
    09:00 +26°C° 0 mm 6 mps 733 mmHg 32%
    10:00 +28°C° 0 mm 5 mps 733 mmHg 28%
    11:00 +30°C° 0 mm 5 mps 733 mmHg 25%
    12:00 +32°C° 0 mm 4 mps 732 mmHg 22%
    13:00 +31°C° 0 mm 3 mps 732 mmHg 20%
    14:00 +32°C° 0 mm 2 mps 731 mmHg 19%
    15:00 +32°C° 0 mm 1 mps 731 mmHg 19%
    16:00 +32°C° 0 mm 1 mps 731 mmHg 19%
    17:00 +32°C° 0 mm 1 mps 731 mmHg 20%
    18:00 +30°C° 0 mm 1 mps 731 mmHg 21%
    19:00 +29°C° 0 mm 2 mps 732 mmHg 22%
    20:00 +28°C° 0 mm 2 mps 732 mmHg 23%
    21:00 +27°C° 0 mm 3 mps 732 mmHg 24%
    22:00 +26°C° 0 mm 3 mps 732 mmHg 26%
    23:00 +26°C° 0 mm 3 mps 732 mmHg 27%

    Tomorrow, 10 April, Friday

    Time Temperature Precipitation Wind Pressure Humidity
    00:00 +25°C° 0 mm 3 mps 732 mmHg 28%
    01:00 +25°C° 0 mm 3 mps 732 mmHg 29%
    02:00 +24°C° 0 mm 3 mps 732 mmHg 31%
    03:00 +24°C° 0 mm 3 mps 732 mmHg 31%
    04:00 +22°C° 0 mm 3 mps 732 mmHg 32%
    05:00 +22°C° 0 mm 3 mps 732 mmHg 32%
    06:00 +24°C° 0 mm 3 mps 732 mmHg 31%
    07:00 +25°C° 0 mm 2 mps 733 mmHg 30%
    08:00 +26°C° 0 mm 2 mps 733 mmHg 28%
    09:00 +28°C° 0 mm 2 mps 733 mmHg 26%
    10:00 +30°C° 0 mm 2 mps 733 mmHg 23%
    11:00 +31°C° 0 mm 2 mps 733 mmHg 20%
    12:00 +32°C° 0 mm 2 mps 732 mmHg 20%
    13:00 +33°C° 0 mm 1 mps 732 mmHg 20%
    14:00 +34°C° 0 mm 1 mps 731 mmHg 19%
    15:00 +33°C° 0 mm 1 mps 731 mmHg 20%
    16:00 +33°C° 0 mm 1 mps 731 mmHg 20%
    17:00 +33°C° 0 mm 1 mps 732 mmHg 21%
    18:00 +32°C° 0 mm 1 mps 732 mmHg 23%
    19:00 +31°C° 0 mm 2 mps 732 mmHg 24%
    20:00 +29°C° 0 mm 2 mps 733 mmHg 26%
    21:00 +29°C° 0 mm 2 mps 733 mmHg 27%
    22:00 +28°C° 0 mm 2 mps 733 mmHg 28%
    23:00 +28°C° 0 mm 2 mps 733 mmHg 29%

    Day after tomorrow, 11 April, Saturday

    Time Temperature Precipitation Wind Pressure Humidity
    00:00 +27°C° 0 mm 2 mps 733 mmHg 33%
    01:00 +26°C° 0 mm 3 mps 732 mmHg 38%
    02:00 +25°C° 0 mm 3 mps 732 mmHg 42%
    03:00 +23°C° 0 mm 4 mps 732 mmHg 52%
    04:00 +22°C° 0 mm 4 mps 733 mmHg 62%
    05:00 +21°C° 0 mm 5 mps 733 mmHg 72%
    06:00 +21°C° 0 mm 5 mps 733 mmHg 71%
    07:00 +21°C° 0 mm 5 mps 733 mmHg 70%
    08:00 +22°C° 0 mm 4 mps 733 mmHg 69%
    09:00 +25°C° 0 mm 4 mps 734 mmHg 56%
    10:00 +28°C° 0 mm 4 mps 734 mmHg 42%
    11:00 +32°C° 0 mm 4 mps 734 mmHg 29%
    12:00 +33°C° 0 mm 3 mps 733 mmHg 26%
    13:00 +34°C° 0 mm 3 mps 732 mmHg 23%
    14:00 +35°C° 0 mm 2 mps 731 mmHg 20%
    15:00 +35°C° 0 mm 2 mps 731 mmHg 20%
    16:00 +35°C° 0 mm 2 mps 732 mmHg 21%
    17:00 +34°C° 0 mm 1 mps 732 mmHg 21%
    18:00 +32°C° 0 mm 2 mps 732 mmHg 23%
    19:00 +31°C° 0 mm 2 mps 732 mmHg 25%
    20:00 +30°C° 0 mm 3 mps 732 mmHg 26%
    21:00 +29°C° 0 mm 3 mps 732 mmHg 28%
    22:00 +29°C° 0 mm 3 mps 732 mmHg 30%
    23:00 +28°C° 0 mm 3 mps 732 mmHg 31%

    12 April, Sunday

    Time Temperature Precipitation Wind Pressure Humidity
    00:00 +27°C° 0 mm 4 mps 732 mmHg 33%
    01:00 +27°C° 0 mm 4 mps 731 mmHg 35%
    02:00 +26°C° 0 mm 4 mps 731 mmHg 36%
    03:00 +26°C° 0 mm 4 mps 731 mmHg 38%
    04:00 +25°C° 0 mm 4 mps 731 mmHg 39%
    05:00 +25°C° 0 mm 4 mps 731 mmHg 41%
    06:00 +26°C° 0 mm 5 mps 731 mmHg 39%
    07:00 +27°C° 0 mm 5 mps 731 mmHg 37%
    08:00 +28°C° 0 mm 6 mps 732 mmHg 35%
    09:00 +30°C° 0 mm 6 mps 732 mmHg 30%
    10:00 +33°C° 0 mm 6 mps 732 mmHg 26%
    11:00 +35°C° 0 mm 5 mps 731 mmHg 21%
    12:00 +36°C° 0 mm 5 mps 731 mmHg 20%
    13:00 +36°C° 0 mm 4 mps 730 mmHg 19%
    14:00 +37°C° 0 mm 4 mps 730 mmHg 18%
    15:00 +37°C° 0 mm 3 mps 729 mmHg 19%
    16:00 +36°C° 0 mm 2 mps 729 mmHg 19%
    17:00 +35°C° 0 mm 1 mps 729 mmHg 20%
    18:00 +34°C° 0 mm 2 mps 729 mmHg 21%
    19:00 +32°C° 0 mm 2 mps 730 mmHg 23%
    20:00 +30°C° 0 mm 2 mps 730 mmHg 24%
    21:00 +30°C° 0 mm 2 mps 730 mmHg 25%
    22:00 +30°C° 0 mm 3 mps 730 mmHg 26%
    23:00 +29°C° 0 mm 4 mps 730 mmHg 26%

    13 April, Monday

    Time Temperature Precipitation Wind Pressure Humidity
    00:00 +28°C° 0 mm 3 mps 730 mmHg 28%
    01:00 +28°C° 0 mm 3 mps 729 mmHg 30%
    02:00 +27°C° 0 mm 3 mps 729 mmHg 32%
    03:00 +26°C° 0 mm 2 mps 729 mmHg 35%
    04:00 +25°C° 0 mm 1 mps 729 mmHg 38%
    05:00 +24°C° 0 mm 1 mps 729 mmHg 40%
    06:00 +26°C° 0 mm 1 mps 729 mmHg 38%
    07:00 +27°C° 0 mm 2 mps 730 mmHg 36%
    08:00 +28°C° 0 mm 2 mps 730 mmHg 34%
    09:00 +30°C° 0 mm 3 mps 730 mmHg 31%
    10:00 +33°C° 0 mm 4 mps 730 mmHg 27%
    11:00 +35°C° 0 mm 5 mps 730 mmHg 23%
    12:00 +36°C° 0 mm 4 mps 729 mmHg 20%
    13:00 +37°C° 0 mm 4 mps 728 mmHg 18%
    14:00 +38°C° 0 mm 4 mps 728 mmHg 15%
    15:00 +38°C° 0 mm 3 mps 728 mmHg 16%
    16:00 +37°C° 0 mm 3 mps 728 mmHg 16%
    17:00 +37°C° 0 mm 2 mps 727 mmHg 16%
    18:00 +35°C° 0 mm 3 mps 728 mmHg 21%
    19:00 +33°C° 0 mm 3 mps 728 mmHg 25%
    20:00 +30°C° 0 mm 4 mps 728 mmHg 29%
    21:00 +29°C° 0 mm 4 mps 728 mmHg 34%
    22:00 +28°C° 0 mm 4 mps 728 mmHg 38%
    23:00 +27°C° 0 mm 4 mps 729 mmHg 42%

    14 April, Tuesday

    Time Temperature Precipitation Wind Pressure Humidity
    00:00 +26°C° 0 mm 4 mps 728 mmHg 46%
    01:00 +25°C° 0 mm 3 mps 728 mmHg 50%
    02:00 +25°C° 0 mm 3 mps 728 mmHg 55%
    03:00 +23°C° 0 mm 4 mps 728 mmHg 61%
    04:00 +21°C° 0 mm 4 mps 728 mmHg 67%
    05:00 +20°C° 0 mm 4 mps 728 mmHg 74%
    06:00 +21°C° 0 mm 4 mps 728 mmHg 71%
    07:00 +21°C° 0 mm 4 mps 729 mmHg 68%
    08:00 +22°C° 0 mm 4 mps 729 mmHg 66%
    09:00 +25°C° 0 mm 4 mps 729 mmHg 56%
    10:00 +28°C° 0 mm 3 mps 729 mmHg 46%
    11:00 +30°C° 0 mm 3 mps 729 mmHg 37%
    12:00 +31°C° 0 mm 3 mps 728 mmHg 33%
    13:00 +34°C° 0 mm 2 mps 728 mmHg 29%
    14:00 +35°C° 0 mm 2 mps 728 mmHg 25%
    15:00 +35°C° 0 mm 2 mps 728 mmHg 26%
    16:00 +34°C° 0 mm 2 mps 728 mmHg 26%
    17:00 +34°C° 0 mm 2 mps 728 mmHg 26%
    18:00 +32°C° 0 mm 2 mps 728 mmHg 28%
    19:00 +31°C° 0 mm 2 mps 728 mmHg 30%
    20:00 +30°C° 0 mm 2 mps 729 mmHg 33%
    21:00 +29°C° 0 mm 3 mps 729 mmHg 34%
    22:00 +28°C° 0 mm 3 mps 729 mmHg 35%
    23:00 +28°C° 0 mm 3 mps 729 mmHg 37%
    Show more